MEV-1

Last updated on Wed Jul 09 2025 00:02:47 GMT+0000 (Coordinated Universal Time)

1 44625U 19067B 25189.49092365 -.00000128 00000+0 00000+0 0 9997 2 44625 0.6131 84.0949 0001153 323.3292 212.0973 1.00283947 58025
UTC large
Height (km)
Speed (km/s)
/
Latitude / Longitude
Inclination (degrees)
Orbital Period (minutes)
Azimuth
Elevation
Range (km)
Doppler Factor

Next 0 passes for location: London (51.5072 / 0.1276)

Sorry there are no passes over London.